When you browse on this site, cookies collect data to enhance your experience and personalize the content and advertising you see.
Visit our Privacy Policy to learn more. By continuing to use the site, you agree to this use of cookies and data.
  • In Spain
  • List of Countries
  • For 7 days
  • Water Temperature
  • Satellite Maps
  • Weather Map
  • Weather Widgets
  • user-avatar
    Login

    Hourly Weather Canillo

    Today, 22 March, Friday

    Time Temperature Precipitation Wind Pressure Humidity
    00:00 0°C° 0 mm 1 mps 621 mmHg 55%
    01:00 0°C° 0 mm 1 mps 621 mmHg 54%
    02:00 0°C° 0 mm 1 mps 621 mmHg 53%
    03:00 0°C° 0 mm 1 mps 621 mmHg 51%
    04:00 0°C° 0 mm 1 mps 621 mmHg 52%
    05:00 0°C° 0 mm 1 mps 621 mmHg 52%
    06:00 0°C° 0 mm 1 mps 621 mmHg 54%
    07:00 +3°C° 0 mm 1 mps 622 mmHg 50%
    08:00 +6°C° 0 mm 1 mps 623 mmHg 46%
    09:00 +8°C° 0 mm 1 mps 625 mmHg 42%
    10:00 +10°C° 0 mm 1 mps 625 mmHg 41%
    11:00 +11°C° 0 mm 1 mps 625 mmHg 40%
    12:00 +12°C° 0 mm 1 mps 626 mmHg 39%
    13:00 +11°C° 0.1 mm 1 mps 625 mmHg 42%
    14:00 +10°C° 0.1 mm 1 mps 625 mmHg 45%
    15:00 +10°C° 0.1 mm 1 mps 624 mmHg 49%
    16:00 +8°C° 0.2 mm 1 mps 623 mmHg 55%
    17:00 +6°C° 0.2 mm 0 mps 623 mmHg 61%
    18:00 +4°C° 0.2 mm 0 mps 622 mmHg 67%
    19:00 +3°C° 0 mm 0 mps 622 mmHg 70%
    20:00 +2°C° 0 mm 0 mps 622 mmHg 73%
    21:00 +2°C° 0 mm 1 mps 622 mmHg 76%
    22:00 +2°C° 0 mm 1 mps 622 mmHg 76%
    23:00 +2°C° 0 mm 1 mps 622 mmHg 76%

    Tomorrow, 23 March, Saturday

    Time Temperature Precipitation Wind Pressure Humidity
    00:00 +2°C° 0 mm 1 mps 622 mmHg 76%
    01:00 +2°C° 0 mm 1 mps 622 mmHg 76%
    02:00 +2°C° 0 mm 1 mps 621 mmHg 75%
    03:00 +2°C° 0 mm 1 mps 621 mmHg 75%
    04:00 +2°C° 0 mm 1 mps 621 mmHg 74%
    05:00 +1°C° 0 mm 1 mps 621 mmHg 73%
    06:00 +1°C° 0 mm 1 mps 621 mmHg 72%
    07:00 +4°C° 0 mm 1 mps 622 mmHg 63%
    08:00 +7°C° 0 mm 1 mps 623 mmHg 54%
    09:00 +9°C° 0 mm 0 mps 625 mmHg 44%
    10:00 +11°C° 0 mm 1 mps 625 mmHg 41%
    11:00 +12°C° 0 mm 1 mps 625 mmHg 39%
    12:00 +13°C° 0 mm 1 mps 626 mmHg 36%
    13:00 +13°C° 0 mm 1 mps 625 mmHg 37%
    14:00 +12°C° 0 mm 1 mps 624 mmHg 39%
    15:00 +12°C° 0 mm 1 mps 624 mmHg 41%
    16:00 +10°C° 0 mm 1 mps 623 mmHg 49%
    17:00 +9°C° 0 mm 1 mps 622 mmHg 57%
    18:00 +7°C° 0 mm 1 mps 621 mmHg 65%
    19:00 +6°C° 0 mm 1 mps 621 mmHg 69%
    20:00 +5°C° 0 mm 1 mps 621 mmHg 72%
    21:00 +4°C° 0 mm 1 mps 621 mmHg 75%
    22:00 +4°C° 0 mm 1 mps 621 mmHg 75%
    23:00 +4°C° 0 mm 1 mps 621 mmHg 74%

    Day after tomorrow, 24 March, Sunday

    Time Temperature Precipitation Wind Pressure Humidity
    00:00 +3°C° 0 mm 1 mps 621 mmHg 74%
    01:00 +3°C° 0 mm 1 mps 621 mmHg 72%
    02:00 +3°C° 0 mm 1 mps 621 mmHg 69%
    03:00 +3°C° 0 mm 1 mps 620 mmHg 67%
    04:00 +3°C° 0 mm 1 mps 620 mmHg 66%
    05:00 +3°C° 0 mm 1 mps 620 mmHg 65%
    06:00 +2°C° 0 mm 1 mps 620 mmHg 64%
    07:00 +5°C° 0 mm 1 mps 622 mmHg 57%
    08:00 +8°C° 0 mm 1 mps 623 mmHg 50%
    09:00 +10°C° 0 mm 1 mps 624 mmHg 42%
    10:00 +11°C° 0 mm 1 mps 624 mmHg 41%
    11:00 +12°C° 0 mm 1 mps 625 mmHg 40%
    12:00 +13°C° 0 mm 1 mps 625 mmHg 39%
    13:00 +13°C° 0 mm 1 mps 624 mmHg 42%
    14:00 +12°C° 0 mm 1 mps 624 mmHg 45%
    15:00 +12°C° 0 mm 1 mps 623 mmHg 48%
    16:00 +10°C° 0.2 mm 1 mps 622 mmHg 57%
    17:00 +8°C° 0.2 mm 1 mps 622 mmHg 66%
    18:00 +7°C° 0.2 mm 1 mps 621 mmHg 74%
    19:00 +6°C° 0 mm 1 mps 621 mmHg 79%
    20:00 +5°C° 0 mm 1 mps 621 mmHg 83%
    21:00 +4°C° 0 mm 1 mps 621 mmHg 88%
    22:00 +4°C° 0 mm 1 mps 621 mmHg 89%
    23:00 +4°C° 0 mm 1 mps 621 mmHg 90%

    25 March, Monday

    Time Temperature Precipitation Wind Pressure Humidity
    00:00 +4°C° 0 mm 1 mps 621 mmHg 91%
    01:00 +4°C° 0 mm 1 mps 620 mmHg 92%
    02:00 +3°C° 0 mm 1 mps 620 mmHg 92%
    03:00 +3°C° 0 mm 1 mps 620 mmHg 93%
    04:00 +3°C° 0 mm 1 mps 620 mmHg 93%
    05:00 +3°C° 0 mm 1 mps 619 mmHg 93%
    06:00 +2°C° 0 mm 1 mps 619 mmHg 94%
    07:00 +5°C° 0 mm 1 mps 620 mmHg 83%
    08:00 +7°C° 0 mm 1 mps 622 mmHg 73%
    09:00 +9°C° 0 mm 1 mps 623 mmHg 62%
    10:00 +10°C° 0.1 mm 1 mps 623 mmHg 60%
    11:00 +10°C° 0.1 mm 1 mps 623 mmHg 58%
    12:00 +11°C° 0.1 mm 1 mps 623 mmHg 56%
    13:00 +10°C° 0.4 mm 1 mps 622 mmHg 61%
    14:00 +9°C° 0.4 mm 1 mps 621 mmHg 66%
    15:00 +8°C° 0.4 mm 1 mps 620 mmHg 71%
    16:00 +8°C° 0.3 mm 1 mps 620 mmHg 76%
    17:00 +7°C° 0.3 mm 1 mps 620 mmHg 80%
    18:00 +5°C° 0.3 mm 2 mps 619 mmHg 85%
    19:00 +5°C° 0 mm 1 mps 619 mmHg 88%
    20:00 +5°C° 0 mm 1 mps 620 mmHg 91%
    21:00 +4°C° 0 mm 1 mps 620 mmHg 94%
    22:00 +3°C° 0 mm 1 mps 619 mmHg 93%
    23:00 +3°C° 0 mm 1 mps 619 mmHg 93%

    26 March, Tuesday

    Time Temperature Precipitation Wind Pressure Humidity
    00:00 +2°C° 0 mm 1 mps 619 mmHg 92%
    01:00 +2°C° 0 mm 1 mps 619 mmHg 91%
    02:00 +1°C° 0 mm 1 mps 619 mmHg 89%
    03:00 +1°C° 0 mm 1 mps 618 mmHg 87%
    04:00 +1°C° 0 mm 1 mps 618 mmHg 87%
    05:00 -1°C° 0 mm 2 mps 618 mmHg 86%
    06:00 -1°C° 0 mm 2 mps 618 mmHg 85%
    07:00 +3°C° 0 mm 1 mps 620 mmHg 70%
    08:00 +6°C° 0 mm 1 mps 621 mmHg 54%
    09:00 +9°C° 0 mm 1 mps 623 mmHg 39%
    10:00 +11°C° 0 mm 1 mps 623 mmHg 36%
    11:00 +12°C° 0 mm 1 mps 624 mmHg 33%
    12:00 +14°C° 0 mm 1 mps 625 mmHg 30%
    13:00 +14°C° 0 mm 1 mps 624 mmHg 33%
    14:00 +13°C° 0 mm 1 mps 624 mmHg 35%
    15:00 +13°C° 0 mm 1 mps 624 mmHg 38%
    16:00 +11°C° 0 mm 1 mps 623 mmHg 48%
    17:00 +9°C° 0 mm 1 mps 623 mmHg 57%
    18:00 +7°C° 0 mm 1 mps 622 mmHg 67%
    19:00 +6°C° 0 mm 1 mps 622 mmHg 73%
    20:00 +4°C° 0 mm 2 mps 623 mmHg 80%
    21:00 +3°C° 0 mm 2 mps 623 mmHg 87%
    22:00 +2°C° 0 mm 2 mps 623 mmHg 87%
    23:00 +2°C° 0 mm 2 mps 623 mmHg 87%

    27 March, Wednesday

    Time Temperature Precipitation Wind Pressure Humidity
    00:00 +2°C° 0 mm 2 mps 622 mmHg 87%
    01:00 +1°C° 0 mm 2 mps 622 mmHg 82%
    02:00 +1°C° 0 mm 2 mps 622 mmHg 76%
    03:00 +1°C° 0 mm 2 mps 622 mmHg 70%
    04:00 +1°C° 0 mm 2 mps 622 mmHg 66%
    05:00 +1°C° 0 mm 2 mps 622 mmHg 63%
    06:00 +1°C° 0 mm 2 mps 622 mmHg 59%
    07:00 +3°C° 0 mm 2 mps 623 mmHg 51%
    08:00 +6°C° 0 mm 2 mps 625 mmHg 43%
    09:00 +9°C° 0 mm 2 mps 626 mmHg 35%
    10:00 +10°C° 0 mm 2 mps 626 mmHg 34%
    11:00 +12°C° 0 mm 2 mps 627 mmHg 33%
    12:00 +13°C° 0 mm 2 mps 627 mmHg 32%
    13:00 +13°C° 0 mm 2 mps 627 mmHg 33%
    14:00 +13°C° 0 mm 2 mps 626 mmHg 33%
    15:00 +13°C° 0 mm 2 mps 626 mmHg 34%
    16:00 +10°C° 0 mm 2 mps 625 mmHg 41%
    17:00 +9°C° 0 mm 1 mps 624 mmHg 48%
    18:00 +7°C° 0 mm 1 mps 624 mmHg 55%
    19:00 +6°C° 0 mm 1 mps 623 mmHg 57%
    20:00 +4°C° 0 mm 1 mps 623 mmHg 59%
    21:00 +3°C° 0 mm 1 mps 623 mmHg 61%
    22:00 +3°C° 0 mm 1 mps 623 mmHg 60%
    23:00 +3°C° 0 mm 1 mps 623 mmHg 59%
    Show more